This demonstration page uses our WeatherBlox Daily Observations layout. Learn more.

Left ArrowRight Arrow

41.55636, -103.73856

Hourly Observations for September 18, 2015

Temp ( °F °C ) Dew Point ( °F °C ) Humidity (%) Winds ( mph kmh ) Pressure ( in mb ) Visibility ( mi km ) Precip ( " mm )
12:00 am 00:00 Cloudy with Nearby Thunderstorms 55 13 54 12 94 94 ESE 9 15 29.88 1012 6 9.65604 0 0
12:19 am 00:19 Cloudy with Rain 55 12.8 52 11.1 90 90 SE 8 13 29.91 1013 6 9.65604 0.04 1.016
12:28 am 00:28 Cloudy with Nearby Thunderstorms 55 13 52 11 88 88 ESE 18 30 29.88 1012 6 9.65604 0 0
12:43 am 00:43 Cloudy with Light Rain 55 12.8 53 11.7 93 93 E 9 15 29.88 1012 5 8.0467 0.09 2.286
12:53 am 00:53 Cloudy with Light Rain 55 12.8 53 11.7 93 93 WNW 6 9 29.91 1013 10 16.0934 0.1 2.54
1:00 am 01:00 Cloudy with Light Thunderstorms 55 13 54 12 94 94 WNW 5 7 29.91 1013 9 14.48406 0 0
1:33 am 01:33 Cloudy with Nearby Thunderstorms 55 12.8 53 11.7 93 93 N 6 9 29.91 1013 6 9.65604 0.07 1.778
1:43 am 01:43 Cloudy with Heavy Thunderstorms 55 12.8 54 12.2 96 96 W 7 11 29.91 1013 2.5 4.02335 0.12 3.048
1:53 am 01:53 Cloudy with Heavy Thunderstorms 54 12.2 53 11.7 97 97 NE 3 6 29.91 1013 1.25 2.011675 0.26 6.604
2:01 am 02:01 Cloudy with Thunderstorms 55 12.8 53 11.7 93 93 ESE 13 20 29.88 1012 3 4.82802 0.06 1.524
2:13 am 02:13 Cloudy with Nearby Thunderstorms 55 12.8 53 11.7 93 93 SE 10 17 29.88 1012 10 16.0934 0.06 1.524
2:25 am 02:25 Cloudy with Light Rain 55 12.8 54 12.2 96 96 SE 15 24 29.85 1011 10 16.0934 0.07 1.778
2:39 am 02:39 Cloudy with Nearby Thunderstorms 55 12.8 55 12.8 100 100 SSE 13 20 29.88 1012 10 16.0934 0.07 1.778
2:51 am 02:51 Mostly Cloudy with Light Thunderstorms 55 13 55 13 100 100 SE 13 20 29.88 1012 8 12.87472 0.07 1.778
2:53 am 02:53 Cloudy with Thunderstorms 55 12.8 55 12.8 100 100 SE 13 20 29.87 1012 5 8.0467 0.07 1.778
3:06 am 03:06 Cloudy with Nearby Thunderstorms 55 13 55 13 100 100 VRB 6 9 29.88 1012 9 14.48406 0 0
3:22 am 03:22 Cloudy with Thunderstorms 55 13 54 12 94 94 W 13 20 29.94 1014 10 16.0934 0 0
3:29 am 03:29 Cloudy with Thunderstorms 56 13.3 54 12.2 93 93 WSW 20 31 29.91 1013 7 11.26538 0.07 1.778
3:37 am 03:37 Cloudy with Nearby Thunderstorms 55 12.8 53 11.7 93 93 W 14 22 29.94 1014 7 11.26538 0.08 2.032
3:53 am 03:53 Cloudy with Nearby Thunderstorms 54 12.2 53 11.7 97 97 WSW 17 28 29.96 1015 5 8.0467 0.11 2.794
4:00 am 04:00 Cloudy with Heavy Thunderstorms 54 12 52 11 94 94 SW 12 19 30 1016 3 4.82802 0 0
4:21 am 04:21 Cloudy with Light Rain 54 12.2 51 10.6 90 90 S 12 19 29.94 1014 10 16.0934 0.1 2.54
4:53 am 04:53 Cloudy 54 12.2 52 11.1 93 93 S 13 20 29.94 1014 10 16.0934 0.1 2.54
5:53 am 05:53 Cloudy with Light Rain 53 11.7 49 9.4 86 86 SSW 6 9 29.97 1015 10 16.0934 0 0.0254
6:53 am 06:53 Cloudy 53 11.7 49 9.4 86 86 SE 13 20 29.96 1015 10 16.0934 0 0.0254
7:53 am 07:53 Mostly Sunny 53 11.7 49 9.4 86 86 SSE 13 20 30 1016 10 16.0934 0 0
8:53 am 08:53 Mostly Sunny 58 14.4 49 9.4 72 72 W 12 19 30.01 1016 10 16.0934 0 0
9:53 am 09:53 Mostly Sunny 60 15.6 44 6.7 56 56 WNW 17 28 30.03 1017 10 16.0934 0 0
10:53 am 10:53 Sunny 62 16.7 41 5 46 46 NW 23 37 30.04 1017 10 16.0934 0 0
11:53 am 11:53 Mostly Sunny 64 17.8 43 6.1 46 46 WNW 21 33 30.05 1018 10 16.0934 0 0
12:53 pm 12:53 Partly Cloudy 65 18.3 41 5 42 42 WNW 23 37 30.05 1018 10 16.0934 0 0
1:53 pm 13:53 Sunny 64 17.8 40 4.4 41 41 NNW 20 31 30.06 1018 10 16.0934 0 0
2:53 pm 14:53 Sunny 65 18.3 40 4.4 40 40 N 20 31 30.05 1018 10 16.0934 0 0
3:53 pm 15:53 Sunny 65 18.3 38 3.3 37 37 NNW 17 28 30.05 1018 10 16.0934 0 0
4:53 pm 16:53 Sunny 65 18.3 37 2.8 36 36 N 15 24 30.06 1018 10 16.0934 0 0
5:53 pm 17:53 Sunny 64 17.8 37 2.8 37 37 N 10 17 30.07 1018 10 16.0934 0 0
6:53 pm 18:53 Sunny 57 13.9 40 4.4 53 53 NE 6 9 30.1 1019 10 16.0934 0 0
7:53 pm 19:53 Clear 52 11.1 41 5 66 66 E 8 13 30.13 1020 10 16.0934 0 0
8:53 pm 20:53 Clear 49 9.4 43 6.1 80 80 E 6 9 30.14 1021 10 16.0934 0 0
9:53 pm 21:53 Clear 48 8.9 42 5.6 80 80 E 9 15 30.14 1021 10 16.0934 0 0
10:53 pm 22:53 Clear 46 7.8 42 5.6 86 86 SE 6 9 30.17 1022 10 16.0934 0 0
11:53 pm 23:53 Clear 44 6.7 41 5 89 89 E 5 7 30.18 1022 10 16.0934 0 0

Powered by AerisWeather